Wind_Speed
46 45 44 43 41 40 39 38 37 36 35 34 33 33 32 31 34 35 34 34 34 34 35 36 37 41 44 45 46 47 48 49 49 50 53 54 54 57 60 61 62 63 64 66 67 69 71 72 73 75 77 78 79 81 82 82 81 82 82 83 84 84 83 82 81 79 78 77 76 75 75 75 76 78 79 80 81 82 83 86 89 92 96 100 104 109
47 45 44 43 42 42 40 39 39 39 40 38 36 34 34 33 34 36 36 35 36 36 36 36 37 41 46 47 47 48 48 48 49 50 52 53 56 59 61 61 63 64 66 68 69 70 72 73 74 76 77 78 80 82 83 83 83 84 84 85 86 86 85 84 83 81 79 78 78 76 76 76 77 79 80 80 80 81 82 86 89 91 94 97 101 106
48 46 45 44 43 43 42 41 40 41 42 41 38 36 35 34 34 36 37 37 38 38 37 37 36 40 45 48 49 48 49 50 49 50 53 56 58 60 60 62 64 65 67 69 71 72 73 75 76 77 78 79 81 83 84 84 86 86 87 87 89 89 87 86 85 83 82 80 80 79 79 79 80 81 82 81 79 79 80 83 87 90 92 94 97 102
49 47 46 45 44 44 44 42 41 42 43 42 40 37 37 37 35 35 36 37 39 40 39 37 35 38 45 50 52 52 52 52 52 53 57 59 59 59 61 63 65 68 71 72 73 74 75 76 77 78 80 82 83 84 86 87 88 89 89 90 92 91 90 88 87 85 84 82 81 81 82 84 85 85 84 83 80 79 79 80 82 85 87 89 91 97
50 48 47 46 45 45 45 44 42 42 44 44 42 39 38 39 39 37 36 38 40 42 44 42 34 33 43 52 55 56 54 53 55 58 60 59 59 60 63 66 69 71 73 74 75 76 77 78 78 79 82 84 86 87 89 91 91 91 92 93 93 93 91 90 89 87 85 84 83 83 84 86 87 87 87 85 81 78 76 76 78 80 80 81 84 89
51 49 48 46 46 46 46 46 45 43 43 44 45 43 40 41 42 42 41 40 42 43 50 52 39 30 40 52 57 58 56 56 58 60 60 59 59 61 65 68 70 72 74 76 76 77 78 79 79 81 84 87 88 90 92 93 92 93 93 94 95 94 92 91 90 89 87 86 85 85 86 86 85 84 85 84 81 78 74 72 74 76 77 77 79 82
52 50 50 48 48 48 48 48 48 46 45 45 47 47 46 47 47 47 46 46 46 44 51 61 51 36 39 52 60 61 58 59 61 61 60 59 60 64 68 70 71 73 75 76 77 78 80 80 82 84 87 89 90 92 94 94 94 94 95 96 96 94 93 92 91 90 90 89 88 87 88 88 85 83 82 81 79 76 72 69 69 71 72 75 77 80
52 51 52 51 50 50 50 51 50 50 49 49 51 51 52 53 52 52 51 51 51 46 50 63 60 47 43 51 62 64 61 61 63 62 60 60 63 67 70 71 73 75 76 77 78 79 81 82 84 86 88 90 92 94 95 95 94 95 96 96 96 95 93 92 92 92 92 91 89 89 90 89 87 85 82 79 76 73 70 67 66 66 68 71 74 78
53 52 54 54 53 52 52 53 54 53 53 54 55 56 57 57 57 57 56 56 55 49 52 62 63 55 47 52 64 66 63 64 64 63 63 64 67 69 70 73 75 76 77 78 79 80 82 84 85 87 90 92 94 95 96 96 96 96 96 97 97 95 93 93 93 94 94 93 92 93 92 90 89 87 84 80 76 72 68 65 63 63 65 69 72 75
55 54 56 56 55 55 55 56 56 57 57 57 59 60 62 62 61 62 60 61 59 53 55 62 64 61 52 54 67 68 66 67 67 67 68 68 70 70 72 74 75 77 79 80 80 82 84 86 87 89 92 95 97 98 98 97 96 96 97 98 97 95 94 93 95 96 97 96 96 97 96 94 92 90 86 80 75 71 67 65 63 60 62 69 72 72
57 57 57 58 58 58 58 58 59 60 60 61 62 64 65 66 66 66 64 65 63 58 59 63 65 65 58 57 66 69 68 71 71 71 71 71 71 72 74 75 77 80 81 81 83 85 87 87 89 92 95 97 99 99 99 98 97 97 98 98 98 96 95 95 97 99 100 99 100 100 100 98 96 92 86 79 73 68 64 63 63 60 61 67 72 71
58 59 59 60 61 60 60 61 62 63 64 65 66 68 68 69 70 69 67 68 66 62 63 64 65 67 63 62 67 69 69 71 72 72 72 72 72 74 75 77 80 83 82 84 87 87 88 89 92 96 98 100 101 100 100 99 98 98 99 99 98 97 97 98 100 102 103 103 103 103 103 102 99 95 88 79 73 67 62 60 61 60 59 64 70 71
61 61 61 62 63 63 63 64 65 66 68 69 70 72 72 73 74 72 70 70 67 65 66 66 66 66 64 66 68 68 69 70 71 72 73 74 75 76 78 81 83 84 85 89 90 89 90 93 96 98 100 102 102 101 100 99 99 99 99 99 97 97 99 101 102 104 105 105 105 105 105 104 101 97 89 81 74 67 62 58 58 57 58 62 67 68
63 62 64 65 64 65 66 67 69 70 72 73 74 76 77 79 79 76 75 73 70 68 67 68 69 66 65 67 67 68 69 70 72 74 75 76 78 80 82 83 84 85 89 92 91 91 94 97 98 100 102 103 102 102 101 100 100 100 100 99 97 99 102 103 104 106 107 107 108 107 107 106 103 99 91 82 75 69 64 59 56 56 56 59 64 64
64 63 65 66 66 67 69 70 72 73 75 76 77 78 80 82 84 81 80 78 75 72 69 69 70 68 67 68 67 69 72 74 76 77 78 79 80 82 83 85 87 89 92 93 92 94 96 98 100 102 103 103 102 102 101 101 101 101 100 99 99 102 105 106 107 108 109 110 110 110 109 107 105 100 92 83 76 72 67 61 57 56 56 58 61 61
67 65 66 68 68 70 71 73 74 76 78 77 78 80 81 83 85 85 83 82 82 79 72 70 69 67 68 68 68 73 76 79 80 81 81 81 81 82 83 86 90 92 93 92 93 96 99 102 104 106 106 104 104 103 103 103 103 102 101 100 102 105 107 108 109 110 111 112 112 113 111 109 106 101 93 83 77 74 70 65 60 57 56 57 59 58
71 68 68 70 71 72 73 74 76 79 80 80 80 82 83 85 86 87 86 85 87 86 78 73 70 68 67 66 68 76 79 80 82 83 83 82 80 81 84 88 91 92 92 91 94 99 103 106 108 109 108 107 106 105 105 106 104 103 102 102 104 107 110 111 111 112 113 113 114 114 113 111 107 101 94 84 78 74 72 68 64 60 58 57 57 56
76 72 71 72 73 74 75 76 79 81 81 82 83 84 84 85 86 88 89 89 91 91 83 77 72 70 69 68 70 78 81 81 83 85 84 82 82 83 87 90 93 93 92 93 98 103 107 109 110 111 110 109 109 108 109 108 106 105 104 104 106 109 111 113 114 115 115 115 116 115 114 112 107 101 93 85 78 75 72 69 65 63 61 58 56 55
81 77 73 74 76 76 77 79 81 82 82 83 83 83 85 86 87 90 93 93 94 93 88 81 74 72 73 72 74 81 84 84 87 88 86 84 84 87 90 93 95 94 94 97 102 107 109 111 112 113 113 112 112 112 112 111 108 108 107 107 108 111 113 114 115 116 116 116 116 115 114 112 107 101 93 85 79 76 73 70 66 64 63 60 56 53
85 82 77 76 77 78 79 81 82 83 84 85 85 85 85 87 90 92 94 95 94 94 92 86 80 75 74 75 80 85 86 87 90 90 87 86 87 89 93 95 97 96 98 102 106 109 112 114 115 116 116 115 115 115 115 113 112 111 110 110 111 113 115 117 118 118 117 117 117 115 114 112 108 102 94 86 80 77 74 71 67 65 64 61 57 52
87 85 80 77 78 79 79 81 82 83 85 86 85 86 86 89 91 92 93 93 94 94 92 91 88 78 75 81 86 87 87 89 93 92 90 90 91 94 97 99 99 101 104 107 110 112 114 116 117 118 117 116 117 118 118 116 115 114 114 113 114 116 118 119 120 120 119 118 118 116 115 114 110 104 96 87 80 77 74 71 69 67 64 62 58 52
89 87 82 79 79 79 79 81 82 82 84 85 84 85 87 89 91 93 93 91 92 93 90 95 93 79 77 87 89 88 90 93 95 95 94 95 96 99 101 101 103 105 108 110 112 114 116 117 118 118 117 117 120 122 121 119 118 117 117 116 117 119 120 121 123 122 121 120 118 116 115 114 111 106 98 88 80 76 74 71 69 68 65 62 58 52
89 87 84 81 80 80 79 79 81 82 84 84 83 84 87 89 91 93 92 90 91 91 92 99 96 82 81 90 90 91 94 96 98 99 99 99 101 103 104 104 107 109 110 112 114 116 118 118 118 118 118 120 123 124 123 122 121 120 120 120 121 123 123 124 125 124 122 120 118 116 115 113 111 106 98 89 80 76 74 70 69 68 66 63 59 52
88 86 84 82 81 79 77 78 81 83 84 84 82 84 87 88 90 92 92 92 93 92 97 103 97 87 88 92 92 94 98 100 102 102 101 103 105 107 108 108 110 111 112 115 116 118 120 119 119 118 120 123 126 126 125 123 122 122 123 123 124 126 126 126 127 125 123 121 118 115 115 114 111 106 99 90 81 76 72 70 69 68 66 63 59 53
86 85 85 83 81 79 77 79 82 84 85 83 82 84 86 88 91 92 93 96 96 95 100 101 96 91 92 93 94 98 104 106 106 105 104 106 108 111 112 111 112 114 115 117 119 120 121 120 120 121 123 126 127 127 126 125 124 125 125 126 127 128 128 128 128 126 124 121 118 116 116 115 112 108 100 91 83 77 72 69 68 67 66 63 60 54
87 85 83 84 84 82 79 81 84 86 85 84 83 85 88 90 93 94 96 99 99 99 99 97 96 94 93 95 99 105 111 111 108 107 108 110 113 115 114 114 116 117 118 120 121 122 123 122 123 124 126 128 128 128 127 126 127 127 128 129 130 130 130 130 130 128 125 122 118 116 117 115 113 109 101 91 83 77 72 68 67 67 65 62 59 55
87 84 82 83 86 86 84 85 87 87 86 85 85 86 89 91 93 96 100 100 101 104 100 96 99 97 92 98 108 112 113 111 109 110 112 115 117 117 117 118 120 120 121 122 124 125 125 125 125 127 128 129 130 129 129 129 129 130 131 132 133 132 132 132 131 129 126 123 119 117 117 116 113 109 101 92 83 77 72 68 66 65 65 61 58 54
89 85 83 85 89 88 88 90 91 90 89 87 86 88 91 92 94 98 101 100 103 107 101 95 101 100 96 104 114 114 112 111 111 114 117 119 119 119 120 121 121 121 123 125 126 126 126 127 128 129 130 131 131 131 131 131 132 133 134 134 134 134 133 132 131 129 127 124 120 119 118 116 114 109 101 93 84 77 71 67 65 64 63 61 57 53
91 88 85 89 92 91 92 94 95 96 94 90 88 90 93 95 97 100 101 102 106 109 102 99 104 103 102 110 115 112 112 113 115 119 121 121 120 121 123 123 122 124 125 126 127 127 127 128 129 131 132 132 133 133 133 135 135 136 136 136 136 136 134 132 130 129 127 124 122 121 119 117 114 108 101 93 85 77 71 67 64 63 61 60 56 52
94 90 88 92 94 93 93 96 99 99 98 93 89 90 94 97 99 102 104 106 109 109 106 107 108 105 106 112 113 111 114 117 118 121 121 121 122 123 124 124 125 127 127 127 127 128 129 129 130 132 134 134 134 134 135 137 138 138 139 139 138 137 135 133 130 128 127 125 123 122 120 117 114 107 100 93 85 78 70 65 63 62 60 58 55 51
97 93 92 96 98 95 95 98 100 100 100 95 89 91 97 101 103 107 109 109 110 110 110 112 110 105 106 111 113 114 117 120 121 122 123 123 124 125 126 127 128 128 127 128 129 130 130 131 133 134 135 136 136 136 136 138 139 140 141 141 140 139 136 134 131 130 128 126 125 122 120 117 113 106 99 92 85 78 70 65 62 61 59 57 53 50
99 98 98 101 103 100 98 101 102 103 103 96 89 93 101 102 104 107 109 108 110 113 113 112 110 107 109 113 115 118 121 123 124 125 126 126 127 128 128 129 129 128 129 130 131 132 133 134 136 137 137 137 137 137 138 139 140 142 142 142 141 139 137 135 133 132 130 128 126 123 120 116 111 104 98 91 84 77 70 65 61 59 58 56 52 49
100 101 101 103 106 104 103 104 106 106 103 94 90 95 100 100 103 107 107 107 110 112 111 110 109 110 113 116 118 121 122 124 126 127 128 130 130 130 130 130 130 130 131 133 134 135 136 137 138 138 138 138 138 139 139 140 141 143 143 142 141 140 138 137 135 133 132 130 127 123 120 116 109 101 95 90 84 76 69 65 61 58 57 56 52 48
103 103 104 106 109 109 109 110 111 108 100 93 93 97 100 103 107 110 108 106 108 110 111 111 112 114 117 120 120 121 122 124 127 129 130 131 131 132 132 132 132 133 135 136 137 137 138 139 139 140 139 139 140 141 142 142 143 144 143 143 142 140 139 138 137 134 132 130 127 124 120 114 106 98 93 88 82 75 68 64 60 57 55 54 50 48
106 106 108 110 112 113 113 114 113 107 99 95 98 102 106 109 111 112 110 107 108 113 116 118 118 119 122 124 123 123 126 128 130 131 131 132 132 133 134 134 135 137 138 139 139 140 140 140 141 141 141 141 142 143 144 144 144 144 144 144 143 142 141 139 137 134 132 130 127 124 120 113 104 96 90 85 81 74 67 63 60 56 54 52 49 46
108 110 112 113 115 116 115 115 113 109 103 100 104 110 112 112 113 115 113 108 111 119 123 123 123 124 126 127 127 128 130 131 132 132 133 134 134 135 136 137 138 140 141 141 141 141 141 141 142 143 143 143 145 146 146 145 145 145 146 145 144 143 141 139 136 134 131 129 127 124 119 111 101 94 88 83 79 73 66 62 59 54 52 51 47 44
111 112 114 117 118 118 118 118 118 116 109 103 106 113 115 114 116 118 115 111 115 123 126 125 125 126 128 129 130 131 132 133 134 135 136 137 137 138 138 139 140 142 142 143 143 143 143 143 144 144 145 146 147 148 148 147 147 147 147 147 145 143 141 139 136 133 131 128 126 123 117 108 99 92 86 81 77 71 64 60 57 53 51 50 46 43
114 116 118 120 121 120 122 123 122 121 114 106 108 114 115 116 118 119 117 116 119 124 126 126 126 128 129 130 132 133 135 136 138 139 140 140 140 140 140 141 142 143 144 145 145 145 145 145 146 146 147 149 149 150 150 149 149 148 148 147 145 142 140 138 135 133 130 128 126 122 115 106 97 90 84 79 75 68 62 59 56 52 50 49 46 43
120 120 121 123 123 123 124 125 124 123 119 114 115 117 117 117 120 121 122 121 122 125 126 126 128 129 130 132 134 136 138 139 140 141 142 142 142 143 143 143 144 145 146 147 147 147 147 147 148 148 149 151 151 152 152 152 151 149 148 146 144 141 139 136 134 132 129 128 125 120 111 103 95 88 82 77 73 67 61 58 55 51 49 47 45 42
123 124 125 125 125 124 124 125 126 124 120 119 121 122 121 123 125 126 127 125 125 126 127 128 129 130 132 134 136 138 139 140 142 143 144 145 145 145 144 145 146 147 148 148 148 148 149 149 150 151 152 152 153 153 153 153 151 150 147 145 142 140 137 135 133 130 129 127 123 116 108 100 93 86 80 75 71 65 60 57 53 50 48 46 44 42
124 125 126 125 123 124 125 127 128 124 121 123 126 126 127 129 129 128 128 127 127 128 128 129 130 132 134 136 138 140 142 143 145 146 146 147 147 147 146 147 148 148 149 149 150 151 151 151 152 153 154 155 155 154 154 153 151 149 146 144 141 138 136 134 131 129 128 125 120 113 106 99 91 84 79 74 68 63 59 56 52 49 48 46 43 41
126 127 126 124 124 126 128 129 127 123 122 126 129 130 130 130 129 128 127 128 128 129 129 131 132 134 136 138 140 143 145 146 147 148 148 149 149 148 148 149 150 150 151 152 152 153 154 154 154 155 156 156 156 155 154 152 150 147 144 142 140 137 135 132 130 128 126 122 116 109 104 97 89 82 77 72 67 61 57 56 51 48 47 45 42 40
131 131 129 128 129 129 129 128 125 124 125 128 130 130 129 129 129 129 129 130 130 131 132 133 134 135 138 140 143 146 148 149 149 149 150 150 150 150 150 151 152 153 154 154 154 155 156 156 156 156 157 156 155 154 152 150 148 145 143 140 138 136 134 131 129 127 124 118 112 107 101 95 87 80 75 70 64 59 56 55 50 47 46 43 41 39
133 133 132 132 132 131 129 126 124 124 126 128 128 129 130 132 132 131 132 133 134 134 135 135 136 138 140 142 144 147 149 150 150 150 151 151 150 150 151 152 154 155 155 155 156 157 158 158 157 157 157 155 154 152 150 147 145 143 141 139 137 135 133 130 128 126 121 115 109 104 99 92 85 78 73 67 61 57 55 54 49 46 45 43 40 38
136 135 135 135 133 132 129 125 123 125 127 127 127 129 132 133 133 133 134 136 137 137 138 138 139 139 141 143 145 147 148 149 150 151 151 150 150 151 152 153 154 155 156 157 158 159 160 159 158 158 156 154 152 149 147 145 143 141 140 138 137 135 132 129 126 122 116 111 106 101 96 89 83 76 71 65 59 54 53 53 49 45 44 42 40 38
138 137 137 136 135 132 128 124 125 128 127 126 128 130 133 134 135 136 137 138 139 139 140 140 139 140 142 144 146 148 149 150 151 152 152 150 150 151 152 153 155 157 158 159 160 161 161 160 158 157 155 152 149 147 145 143 141 140 139 137 136 134 131 127 122 117 112 108 104 98 92 86 80 74 70 65 58 52 51 51 48 45 43 41 40 39
137 137 138 137 136 133 128 125 127 128 127 127 130 131 133 135 138 139 139 140 141 141 141 140 140 141 142 144 147 149 150 151 152 152 151 151 151 152 153 155 157 159 160 160 161 161 160 159 157 155 152 149 147 144 143 141 140 139 138 136 135 133 129 124 118 112 108 105 101 95 88 83 77 73 69 64 57 52 50 50 46 43 42 40 39 39
133 136 138 138 137 135 130 126 127 128 128 130 132 133 136 139 141 142 142 142 142 142 141 140 140 140 142 145 148 149 150 151 152 152 151 151 152 154 157 159 161 161 161 161 160 159 157 156 154 151 149 146 144 143 141 140 139 138 137 136 133 130 125 119 113 108 105 101 97 91 85 80 75 70 67 63 56 50 49 49 46 42 40 39 38 38
135 137 138 138 138 137 132 128 130 132 133 133 135 137 139 142 142 143 143 143 143 142 142 141 142 143 145 147 149 149 149 150 151 151 151 153 156 159 161 162 162 161 159 158 157 155 154 152 150 147 145 144 142 141 140 139 139 138 136 134 130 125 120 114 110 105 101 97 93 88 83 78 73 69 66 62 56 50 47 47 46 43 39 37 37 38
137 137 138 139 140 139 134 132 134 136 136 135 137 139 140 142 143 144 144 144 144 145 144 145 145 146 148 148 148 149 149 149 150 152 155 158 161 162 162 161 159 157 155 154 153 151 149 147 145 144 143 142 141 140 140 139 138 137 135 131 125 119 114 109 106 102 97 93 89 85 81 77 72 68 65 62 57 51 46 45 44 43 39 37 37 38
138 138 139 140 141 140 138 136 136 138 137 137 138 138 139 141 143 144 144 145 146 146 147 147 148 148 148 148 148 149 149 151 154 157 160 162 162 161 159 156 154 153 151 150 148 147 145 144 142 142 141 140 140 140 139 138 137 135 131 126 120 114 109 105 102 98 93 88 85 81 78 75 71 67 64 60 56 52 48 44 42 41 39 36 36 37
Wind_Direction
304 305 304 304 305 307 307 308 308 307 307 309 309 307 305 306 308 310 312 314 314 313 311 311 311 310 310 311 310 307 305 305 304 306 308 309 310 312 313 314 314 315 315 315 314 313 314 316 316 316 316 316 315 316 316 316 316 316 317 317 318 318 317 316 314 313 311 310 309 309 310 310 310 309 308 305 302 298 293 289 286 283 281 280 278 278
302 303 303 302 303 304 305 305 306 305 305 306 306 305 304 303 305 307 310 312 313 313 313 312 312 312 312 312 309 307 306 305 305 307 307 308 310 312 313 313 314 314 314 314 313 313 315 316 316 316 317 317 317 317 316 316 316 316 317 317 317 317 316 315 313 312 311 311 310 310 311 311 311 310 307 304 300 296 293 289 285 283 281 280 279 278
301 302 302 300 301 302 302 302 303 303 302 303 303 303 303 303 305 307 310 313 313 314 315 315 318 318 315 313 310 308 308 306 307 308 308 309 311 312 313 313 313 314 314 313 313 314 316 316 316 317 318 318 317 317 317 317 317 317 317 317 317 317 316 316 315 314 315 315 315 315 315 315 314 312 309 305 300 295 291 287 284 282 280 279 278 277
300 302 301 299 300 300 300 299 300 301 300 300 301 302 303 305 306 306 310 314 314 314 313 313 319 323 321 316 311 310 308 308 310 310 309 311 312 312 312 312 313 313 314 314 313 315 316 316 317 318 318 317 316 317 318 318 318 318 318 318 318 318 318 317 317 318 318 319 320 320 320 319 317 315 312 308 303 298 293 289 285 282 280 278 276 275
300 301 300 299 299 298 298 298 297 298 299 299 300 301 303 306 306 305 307 310 312 313 311 308 312 323 324 318 314 312 310 310 311 310 310 310 311 312 311 312 313 313 314 314 314 315 316 316 317 318 317 315 315 317 319 319 318 319 318 318 319 319 319 320 320 320 321 322 323 323 323 322 320 319 316 312 309 305 300 296 292 288 284 280 276 273
298 299 298 297 298 297 297 297 297 297 298 298 299 299 302 304 306 305 305 308 310 312 313 309 307 317 321 319 315 312 310 310 309 308 308 309 310 311 311 312 313 313 313 312 313 315 315 315 316 316 315 315 316 317 318 318 318 319 319 319 320 320 321 322 322 322 322 324 325 325 325 323 320 319 317 313 309 306 304 300 296 292 288 284 278 274
296 298 297 296 297 296 296 297 296 297 297 297 298 299 300 302 304 305 305 307 308 311 314 310 307 310 316 318 314 310 310 310 307 306 307 308 310 310 311 312 312 312 312 312 313 314 314 314 315 315 315 315 316 317 317 317 318 319 319 320 321 322 323 323 323 324 325 327 327 327 326 324 321 318 316 313 309 306 302 300 296 292 288 284 280 276
294 295 295 295 295 295 296 296 296 296 297 298 298 299 300 301 303 304 305 307 306 310 312 309 308 310 315 317 312 310 312 311 307 306 307 308 310 311 311 312 312 312 311 312 313 313 313 314 315 315 314 315 316 317 317 317 318 319 320 321 322 323 324 324 325 326 327 328 329 329 328 326 323 321 318 316 312 307 303 300 297 293 287 282 279 276
292 293 293 293 293 294 295 295 296 296 297 298 298 299 301 302 303 304 306 307 306 308 310 308 309 311 316 317 310 309 312 310 307 307 308 310 311 311 312 312 312 312 312 312 312 312 314 315 315 315 315 315 317 317 317 318 318 319 320 321 323 323 323 324 326 328 329 330 331 332 331 329 327 325 322 319 315 311 307 302 298 294 288 283 278 275
291 291 291 291 292 293 294 294 295 296 297 298 298 299 300 301 302 303 305 306 306 309 308 307 309 310 314 316 310 310 311 308 307 307 309 311 311 311 311 312 312 313 312 312 312 312 314 315 315 315 315 316 317 318 318 319 318 319 320 321 323 323 323 325 327 329 331 332 334 334 334 333 331 329 325 322 318 314 310 305 300 296 289 284 280 277
290 290 290 291 291 292 293 294 295 296 297 297 297 297 297 299 300 301 303 304 307 311 309 308 310 309 312 313 309 310 310 307 306 307 309 311 311 311 312 312 313 313 312 312 312 313 314 316 316 316 316 317 318 318 319 319 319 319 320 321 322 322 324 327 330 332 333 334 336 336 336 336 334 331 327 323 319 315 311 306 301 297 290 285 282 279
289 289 289 290 291 291 292 293 294 295 296 295 295 295 296 297 297 299 301 302 306 310 309 309 309 309 311 311 308 309 308 306 306 307 308 310 310 311 312 313 313 312 312 312 313 314 316 317 317 316 317 317 318 318 319 319 319 320 321 322 322 324 327 330 332 334 335 336 337 338 338 337 335 332 329 324 320 316 311 305 300 297 291 285 282 281
288 289 290 289 290 291 291 292 293 294 295 295 295 295 296 296 295 297 298 300 305 308 308 308 307 308 310 309 308 308 306 306 307 308 308 309 310 312 313 313 313 312 313 314 315 316 317 318 317 316 317 318 318 318 319 319 320 320 321 322 324 326 329 332 333 335 336 337 338 339 339 338 336 334 330 325 321 317 312 305 300 296 290 285 283 282
287 289 290 291 292 292 292 293 293 294 295 295 295 295 296 296 296 298 298 299 303 305 305 306 306 307 309 308 308 307 306 307 308 309 309 309 311 312 312 313 313 313 314 316 316 317 319 319 318 317 318 318 318 318 319 319 320 321 322 324 326 328 331 333 335 336 337 338 339 339 339 339 337 334 331 327 322 319 315 308 302 297 292 287 285 284
285 288 290 292 293 293 293 293 293 294 294 294 296 296 296 295 296 297 298 300 302 302 304 304 305 308 308 309 309 306 306 308 308 308 309 310 312 312 312 313 313 314 315 316 317 318 319 319 319 319 319 319 319 319 319 320 321 322 324 326 328 330 332 334 336 337 338 339 340 340 340 339 337 335 332 328 324 321 317 311 305 300 295 290 288 286
286 287 289 290 291 291 291 291 293 293 293 294 295 295 294 294 295 297 299 300 301 302 303 303 305 307 307 309 309 306 307 307 307 307 309 311 312 312 312 313 313 314 314 314 316 318 319 318 319 319 320 321 321 320 320 321 323 325 326 328 330 332 334 335 337 338 339 340 340 340 340 339 338 335 332 329 326 323 319 315 309 303 299 294 290 288
286 286 287 288 289 290 290 291 292 293 293 294 294 293 294 294 295 297 299 300 300 301 302 302 304 306 306 308 308 307 306 306 306 308 310 312 312 312 313 313 314 314 313 314 316 318 318 319 319 319 320 321 321 321 322 324 326 327 329 330 332 333 335 336 337 338 339 340 340 341 340 339 338 336 333 329 327 324 321 317 312 307 302 297 293 291
286 286 286 287 288 289 290 291 292 293 293 294 293 294 294 295 296 298 299 300 300 300 301 302 305 306 306 308 309 306 304 305 307 308 310 311 311 312 313 313 314 314 313 315 317 318 319 319 319 320 320 322 322 323 324 326 328 329 331 332 333 334 335 337 338 339 339 340 341 341 341 340 338 336 333 330 327 324 321 318 314 310 305 300 296 294
286 285 285 286 288 290 291 292 292 293 294 294 294 294 295 296 298 298 298 299 299 300 301 303 305 306 307 311 310 304 304 306 308 308 310 311 312 313 313 313 314 314 315 316 318 319 319 319 319 320 321 322 323 324 326 328 329 331 332 333 334 335 336 337 338 339 340 340 340 341 340 340 338 336 333 330 327 325 322 319 315 311 306 302 299 296
285 285 285 286 288 290 291 292 293 294 294 294 294 295 296 297 297 297 298 299 300 300 302 304 304 306 311 313 308 304 306 308 307 307 310 312 313 314 314 314 315 315 316 318 319 319 319 319 319 321 322 323 324 326 327 329 330 332 333 333 334 336 337 338 338 339 340 340 340 341 340 340 338 336 333 330 328 325 323 320 316 311 307 303 301 298
284 285 285 286 288 289 291 292 294 295 295 294 295 296 297 296 296 297 297 299 300 300 303 304 303 308 315 311 305 306 310 309 307 308 311 313 314 314 314 315 316 316 317 318 319 319 319 319 320 322 323 324 325 327 328 329 331 332 333 334 335 336 337 338 339 339 340 340 340 340 340 340 338 336 334 331 328 325 323 320 316 311 307 304 301 300
285 286 287 288 289 290 291 292 293 294 294 294 295 297 296 296 296 296 297 299 299 301 304 303 302 312 316 308 306 311 312 309 308 311 313 313 313 314 315 316 316 317 318 318 319 319 319 320 321 323 324 325 326 327 328 329 330 331 333 334 335 336 337 338 338 339 339 340 340 340 340 340 338 336 334 330 328 325 323 321 316 311 307 304 302 301
288 288 289 289 290 290 291 292 293 293 293 293 295 296 295 295 296 296 297 299 299 303 304 300 303 313 312 306 309 313 310 307 308 312 314 313 314 315 316 317 317 317 318 318 319 320 320 321 322 324 325 326 327 328 328 329 330 331 332 334 335 336 337 338 338 338 339 339 340 340 340 340 338 336 333 330 327 325 323 321 316 311 307 305 303 302
289 290 290 290 290 291 292 292 293 292 292 293 294 295 294 295 295 296 297 298 300 303 301 299 306 312 308 307 312 312 308 307 309 313 314 313 314 315 316 317 317 317 318 318 319 320 321 321 323 324 325 326 327 328 328 329 330 331 332 333 335 336 336 337 337 337 338 339 339 339 340 339 338 336 333 330 327 324 323 321 317 311 307 305 303 302
289 289 290 290 290 290 291 292 291 291 291 292 293 294 294 295 294 295 296 297 299 300 298 302 309 310 307 311 313 309 307 308 311 314 313 312 314 315 316 317 317 317 318 319 320 320 321 322 323 324 325 326 327 327 328 328 329 331 332 333 334 335 336 336 336 337 337 338 339 339 340 339 338 335 333 330 327 324 322 321 317 311 307 304 302 302
287 288 290 291 290 290 291 291 290 289 290 291 292 294 294 294 294 296 296 297 299 298 300 306 310 307 310 313 311 307 307 309 313 313 312 313 314 315 316 316 316 317 318 319 319 320 320 322 323 324 325 326 326 327 327 328 330 331 332 333 333 334 335 336 336 336 337 337 338 339 339 339 337 335 332 330 326 323 322 321 317 312 307 304 302 301
286 287 289 289 289 291 292 291 290 290 291 292 294 295 296 296 297 298 297 298 299 299 303 308 307 306 312 313 308 307 309 311 314 313 312 313 314 316 316 316 316 317 317 318 319 319 320 321 322 323 325 325 326 326 327 328 329 331 331 332 333 334 335 335 335 336 336 337 338 339 339 338 337 335 332 329 326 323 322 321 317 312 307 303 301 300
285 286 288 288 288 289 290 290 290 290 291 293 295 296 298 299 300 298 297 299 301 301 304 308 305 307 313 310 306 307 310 312 313 312 312 313 314 315 316 315 316 316 317 317 318 318 320 321 322 323 324 325 325 325 327 328 329 330 331 332 332 333 334 334 335 335 336 337 338 338 338 338 336 334 332 329 326 322 322 321 317 312 307 303 301 299
285 286 287 287 287 288 289 289 290 290 292 293 296 298 300 300 298 297 298 300 301 301 304 306 305 309 312 308 305 308 311 312 312 311 312 312 313 314 315 315 316 316 316 317 317 318 320 321 322 323 323 324 324 325 326 328 328 329 330 331 332 333 333 334 334 335 336 337 337 338 338 337 336 334 331 328 325 322 322 321 317 312 307 303 300 299
285 286 287 286 286 288 289 289 289 291 292 293 297 301 300 298 297 298 300 301 300 301 303 304 305 309 309 306 306 309 310 310 310 311 311 312 313 313 314 315 315 315 316 317 317 319 320 321 322 322 323 323 324 325 326 327 328 329 330 331 331 332 333 333 334 335 335 336 337 337 337 336 335 333 330 328 325 322 322 321 317 313 308 303 300 298
285 286 287 286 287 288 289 288 289 291 291 294 299 300 297 296 299 300 300 300 301 302 302 303 305 308 306 305 307 309 308 308 309 310 311 312 312 313 313 314 315 315 316 317 318 319 320 321 322 322 323 323 323 325 326 327 328 328 329 330 330 331 332 333 334 335 335 336 336 336 336 336 334 332 330 327 324 321 321 321 317 313 308 303 300 297
286 286 287 287 288 288 288 288 289 289 291 296 300 297 296 298 300 299 300 301 302 302 302 303 305 306 305 305 307 307 307 307 308 309 310 311 311 312 313 314 315 316 317 318 319 320 320 321 321 322 322 322 323 324 326 327 328 328 329 329 330 331 332 332 333 334 334 335 335 335 335 335 334 331 329 327 323 321 321 321 317 313 309 303 300 297
286 287 288 288 288 288 288 288 288 289 292 297 298 296 296 298 298 298 300 302 302 302 303 304 305 306 306 306 306 306 306 307 307 308 309 310 311 312 313 314 316 317 318 319 319 319 320 320 321 321 322 322 323 324 325 327 327 327 328 329 329 330 331 332 333 333 334 334 334 335 334 334 333 331 328 326 323 320 321 320 316 312 308 303 300 296
287 288 288 288 288 289 289 289 288 290 294 297 296 296 296 297 297 298 299 301 303 303 303 303 305 306 306 306 306 306 307 307 308 308 309 310 311 312 313 315 316 317 318 318 319 319 319 320 321 321 322 322 323 324 325 326 327 327 328 328 329 330 331 331 332 332 333 333 334 334 333 333 332 330 328 326 322 320 321 319 315 311 307 302 299 296
287 287 287 288 288 288 289 289 289 292 295 296 296 296 295 296 296 296 298 301 302 301 300 302 304 305 305 306 306 307 307 308 309 309 310 310 312 313 313 315 316 317 317 317 318 318 319 320 320 321 321 322 323 324 325 326 326 327 327 328 329 330 330 331 331 332 332 333 333 333 332 332 331 329 327 325 322 320 321 319 314 310 306 302 298 295
286 286 287 287 288 288 288 289 291 292 294 296 296 295 295 295 295 296 297 300 300 299 299 301 303 304 305 305 306 307 307 309 309 310 310 311 312 313 314 315 315 315 316 316 317 317 318 319 320 320 321 322 323 324 324 325 326 326 327 328 328 329 329 330 330 331 332 332 332 332 331 331 330 328 326 324 321 320 321 318 313 309 305 301 297 294
285 285 286 286 286 287 288 289 290 291 293 295 295 294 295 295 295 296 297 299 299 298 299 301 303 303 303 305 306 306 307 308 309 310 311 312 312 313 314 314 314 314 315 315 316 317 318 318 319 319 320 321 322 323 324 325 325 326 326 327 327 328 328 329 330 330 331 331 332 331 330 330 329 327 326 324 321 320 320 317 312 308 304 301 297 294
284 284 285 285 286 286 287 288 289 290 292 294 293 292 293 294 294 295 296 297 298 297 298 301 302 302 303 305 305 306 307 308 309 310 311 312 312 312 313 313 314 314 314 315 315 316 317 318 318 319 320 321 322 322 323 324 324 325 325 326 327 327 328 328 329 330 330 331 331 331 330 329 328 327 325 323 321 320 320 317 312 308 304 300 298 294
282 283 284 284 285 286 287 288 289 290 291 292 291 291 292 293 293 294 295 296 297 297 299 300 301 302 304 305 305 306 307 308 309 309 310 311 311 311 312 312 313 313 314 314 315 316 317 317 317 318 319 320 321 321 322 323 323 324 324 325 326 326 327 328 328 329 329 330 330 330 329 328 327 326 324 322 321 321 320 316 312 308 304 300 298 294
281 282 282 283 284 285 287 288 289 290 291 291 290 290 291 292 292 293 295 296 297 298 299 300 301 303 304 305 306 306 307 307 308 308 309 310 310 311 311 312 312 313 313 314 315 315 316 316 317 318 318 319 320 321 321 322 322 323 324 324 325 326 327 327 328 328 329 329 329 329 328 327 326 325 323 322 321 321 320 315 312 309 304 301 298 295
280 280 280 282 284 286 287 288 288 290 291 291 290 290 290 290 291 293 295 296 297 298 299 300 302 303 304 305 305 306 306 306 307 308 309 309 309 311 311 312 312 312 313 314 314 315 315 316 316 317 318 318 319 319 320 321 321 322 323 323 324 325 326 327 327 328 329 329 329 328 327 327 325 324 323 321 321 322 320 315 312 309 304 301 297 294
280 280 281 284 286 286 286 287 288 290 291 291 290 290 291 291 293 294 295 296 297 298 300 301 302 303 304 304 305 305 305 306 307 308 308 308 309 311 311 311 312 312 313 313 314 314 315 315 315 316 316 317 318 318 319 320 320 321 322 323 324 325 326 326 327 328 328 328 328 328 327 326 324 323 322 321 321 322 319 314 311 309 304 300 297 293
281 282 284 285 285 285 286 287 290 291 291 291 291 292 293 294 295 296 297 298 298 299 300 301 302 303 303 304 304 305 305 306 307 308 308 308 310 310 311 311 311 311 312 312 313 313 313 314 314 315 315 316 317 317 318 319 320 321 322 323 324 324 325 326 327 327 328 328 328 327 326 325 323 322 321 320 321 322 318 313 311 308 304 300 296 292
283 284 284 284 284 285 287 288 291 291 291 291 293 294 295 296 296 297 298 298 298 299 299 300 301 302 302 303 304 304 305 306 307 307 307 308 309 309 309 310 310 311 311 311 311 312 312 313 313 314 314 315 316 317 317 318 319 320 321 322 323 323 324 325 326 327 327 327 327 326 325 323 322 321 320 319 320 321 318 312 310 308 304 300 296 292
284 284 284 284 285 287 288 290 292 292 292 294 295 296 295 295 296 297 297 297 297 298 299 300 300 301 302 302 303 304 305 306 306 306 306 307 308 308 308 308 309 309 309 309 310 310 311 312 312 313 314 314 315 316 317 318 319 320 321 321 322 323 324 325 326 326 327 326 326 325 324 322 321 320 319 318 320 321 317 312 309 307 304 300 295 291
284 285 285 285 286 287 289 291 292 292 293 294 295 295 295 295 295 295 296 296 297 297 298 299 300 300 301 302 303 304 305 305 304 305 306 306 307 307 307 307 308 308 308 308 309 309 310 311 311 312 313 313 314 315 316 317 318 319 320 320 321 322 323 324 325 326 326 326 325 324 323 321 320 320 318 318 319 320 316 311 308 306 303 299 295 290
283 284 284 285 286 288 290 291 292 292 292 293 293 293 293 293 293 294 295 295 296 297 297 298 299 300 301 302 303 303 303 303 303 303 304 305 305 306 306 307 307 307 307 307 308 308 309 310 310 311 312 313 314 315 316 317 318 318 319 320 321 322 323 324 325 326 326 325 324 323 322 321 320 319 318 317 318 319 315 310 306 305 302 298 293 288
281 282 283 285 287 288 289 290 291 290 290 291 292 292 292 292 292 293 294 295 295 296 297 298 299 300 300 300 301 301 301 301 302 303 303 304 304 305 305 306 306 306 306 306 307 308 308 309 310 311 311 312 313 314 315 316 317 318 319 320 321 321 322 323 325 326 326 324 323 322 321 320 319 318 317 316 317 318 315 310 306 304 301 297 292 287
278 280 283 284 285 286 289 290 290 289 289 290 291 290 290 291 291 292 293 294 294 295 295 296 297 298 298 299 299 299 300 300 301 302 303 303 303 304 304 305 305 305 305 305 306 307 308 309 309 310 311 312 313 314 315 316 316 317 318 319 320 321 322 323 325 326 325 323 322 321 320 319 318 318 316 315 316 316 314 310 306 303 299 295 291 285
277 279 281 282 283 285 288 289 288 287 288 289 289 289 289 290 290 291 292 292 293 294 294 295 296 297 297 297 298 298 299 299 300 301 301 302 302 303 303 304 304 304 305 305 306 307 308 308 309 310 311 312 313 313 314 315 316 317 317 318 320 321 322 323 325 325 324 322 321 320 319 319 318 317 316 315 315 315 313 309 304 301 298 294 289 283
276 277 279 280 282 285 286 287 287 287 287 287 287 288 289 289 289 290 291 291 292 293 294 294 295 296 296 296 297 297 298 298 299 300 301 301 302 302 302 303 303 304 304 305 306 307 307 308 309 310 310 311 312 313 314 314 315 316 317 318 319 321 322 324 325 325 323 321 320 320 319 318 317 317 315 315 315 314 312 308 303 299 296 292 286 280
Height
10769 10769 10767 10765 10765 10764 10762 10761 10759 10758 10756 10755 10753 10751 10750 10749 10746 10744 10745 10743 10742 10741 10738 10737 10735 10731 10727 10725 10723 10719 10715 10712 10709 10706 10703 10699 10696 10693 10689 10686 10682 10679 10675 10672 10667 10663 10658 10654 10650 10646 10641 10636 10630 10626 10622 10618 10614 10610 10605 10600 10595 10590 10585 10580 10573 10565 10557 10548 10541 10533 10524 10515 10505 10494 10486 10476 10464 10456 10447 10437 10429 10421 10412 10405 10398 10391
10765 10765 10763 10761 10760 10759 10757 10756 10755 10753 10751 10750 10749 10747 10745 10745 10744 10741 10740 10740 10738 10737 10735 10733 10732 10727 10722 10720 10716 10713 10711 10708 10705 10702 10698 10694 10691 10688 10684 10680 10675 10672 10668 10664 10659 10654 10651 10647 10642 10638 10633 10627 10622 10617 10614 10610 10605 10601 10596 10590 10585 10579 10573 10566 10558 10551 10543 10534 10526 10519 10511 10502 10492 10480 10470 10463 10453 10443 10433 10421 10412 10404 10397 10390 10383 10374
10760 10760 10758 10756 10756 10754 10752 10751 10750 10748 10746 10745 10744 10743 10741 10740 10740 10737 10735 10735 10733 10732 10731 10729 10729 10725 10718 10713 10709 10708 10705 10702 10700 10697 10692 10688 10686 10681 10677 10672 10668 10664 10661 10656 10651 10646 10643 10639 10634 10630 10625 10620 10615 10611 10607 10602 10596 10591 10585 10579 10572 10567 10560 10551 10543 10535 10526 10518 10509 10501 10493 10484 10476 10465 10453 10444 10437 10429 10420 10408 10397 10388 10382 10377 10369 10359
10755 10755 10753 10751 10750 10749 10747 10746 10745 10743 10740 10738 10738 10738 10735 10734 10735 10734 10732 10730 10728 10726 10725 10725 10726 10723 10715 10706 10701 10700 10698 10695 10693 10689 10684 10681 10678 10674 10669 10664 10661 10657 10652 10647 10642 10639 10635 10631 10627 10622 10618 10612 10607 10603 10599 10592 10586 10580 10573 10566 10560 10553 10545 10536 10527 10519 10510 10502 10494 10485 10474 10464 10454 10444 10433 10424 10417 10410 10402 10393 10382 10372 10368 10364 10355 10344
10749 10749 10749 10746 10745 10743 10741 10741 10740 10738 10735 10732 10731 10731 10730 10728 10727 10728 10728 10727 10724 10721 10717 10717 10723 10723 10714 10702 10694 10690 10688 10687 10685 10680 10676 10673 10671 10667 10662 10657 10654 10649 10644 10639 10634 10631 10627 10623 10619 10615 10610 10604 10599 10594 10589 10582 10575 10568 10561 10554 10547 10539 10531 10521 10512 10504 10495 10487 10479 10471 10461 10448 10436 10423 10410 10402 10396 10389 10381 10372 10362 10353 10349 10346 10340 10329
10743 10744 10743 10741 10740 10737 10736 10735 10733 10733 10731 10727 10724 10723 10723 10722 10721 10720 10721 10721 10720 10717 10709 10704 10714 10723 10714 10700 10689 10684 10683 10681 10678 10673 10670 10668 10665 10661 10656 10651 10647 10642 10636 10630 10626 10623 10619 10615 10611 10607 10601 10594 10589 10584 10578 10571 10564 10557 10550 10542 10534 10525 10516 10507 10498 10489 10480 10472 10464 10455 10446 10435 10425 10413 10398 10385 10378 10373 10366 10356 10345 10336 10328 10324 10320 10313
10738 10739 10737 10736 10734 10731 10730 10728 10727 10727 10725 10723 10718 10717 10716 10715 10715 10713 10713 10714 10713 10714 10706 10692 10700 10715 10713 10699 10685 10679 10679 10676 10671 10667 10665 10663 10660 10655 10649 10645 10640 10635 10629 10623 10619 10615 10611 10607 10602 10597 10591 10584 10579 10574 10567 10560 10553 10546 10538 10530 10521 10512 10503 10494 10484 10474 10465 10457 10448 10437 10427 10416 10406 10399 10388 10375 10365 10358 10352 10344 10334 10325 10315 10307 10301 10294
10734 10734 10731 10730 10729 10726 10725 10722 10720 10720 10719 10717 10713 10711 10710 10708 10707 10706 10706 10706 10705 10709 10704 10686 10687 10702 10707 10697 10679 10673 10674 10669 10663 10660 10659 10657 10653 10648 10642 10638 10633 10627 10622 10617 10612 10608 10604 10600 10595 10588 10581 10574 10569 10563 10557 10550 10543 10535 10526 10518 10508 10499 10490 10481 10470 10460 10450 10442 10433 10422 10411 10399 10386 10377 10369 10361 10352 10344 10337 10330 10320 10312 10304 10295 10287 10279
10729 10729 10725 10724 10723 10720 10719 10716 10714 10713 10711 10710 10707 10704 10703 10701 10700 10698 10699 10698 10697 10704 10699 10684 10679 10687 10698 10691 10672 10667 10668 10661 10655 10652 10651 10650 10645 10641 10635 10630 10626 10620 10615 10610 10605 10601 10597 10592 10586 10579 10571 10564 10559 10552 10546 10539 10531 10523 10515 10506 10497 10487 10478 10468 10457 10446 10435 10425 10416 10405 10394 10383 10371 10360 10350 10342 10334 10327 10322 10315 10307 10299 10291 10282 10274 10267
10724 10723 10720 10718 10717 10715 10713 10711 10708 10705 10704 10702 10699 10697 10695 10693 10692 10690 10691 10689 10690 10697 10692 10682 10676 10677 10688 10685 10665 10661 10660 10652 10648 10645 10643 10641 10637 10633 10628 10623 10619 10613 10607 10603 10597 10593 10588 10583 10577 10569 10561 10554 10548 10541 10535 10528 10519 10511 10503 10495 10485 10475 10466 10455 10444 10432 10421 10409 10398 10387 10377 10367 10357 10346 10336 10327 10319 10311 10305 10299 10292 10285 10278 10268 10260 10255
10718 10716 10714 10712 10710 10709 10707 10704 10701 10698 10697 10694 10692 10689 10687 10686 10683 10682 10683 10680 10682 10689 10684 10677 10673 10669 10677 10678 10662 10656 10652 10644 10641 10637 10635 10633 10628 10624 10621 10616 10611 10605 10600 10595 10589 10584 10579 10573 10566 10558 10550 10543 10537 10531 10524 10516 10508 10500 10492 10484 10474 10462 10453 10442 10430 10418 10406 10394 10383 10371 10360 10351 10341 10332 10324 10316 10308 10300 10293 10285 10277 10272 10265 10256 10247 10242
10713 10710 10708 10706 10703 10702 10700 10697 10694 10692 10689 10686 10684 10681 10680 10678 10674 10675 10675 10672 10674 10679 10676 10672 10668 10664 10668 10667 10658 10652 10646 10639 10635 10632 10629 10625 10621 10617 10613 10608 10602 10597 10592 10586 10580 10576 10569 10563 10556 10547 10540 10533 10526 10520 10512 10504 10496 10489 10480 10472 10462 10449 10439 10429 10417 10405 10393 10381 10369 10357 10346 10336 10326 10318 10309 10303 10296 10289 10282 10275 10266 10260 10253 10244 10235 10230
10707 10704 10702 10700 10698 10695 10693 10690 10687 10685 10681 10678 10675 10671 10670 10668 10665 10667 10667 10665 10668 10670 10668 10665 10662 10662 10662 10657 10651 10646 10638 10633 10630 10625 10621 10617 10613 10610 10604 10599 10593 10587 10582 10576 10571 10565 10559 10552 10545 10537 10529 10523 10516 10508 10501 10493 10485 10477 10468 10459 10449 10438 10427 10417 10406 10393 10380 10368 10357 10345 10334 10323 10313 10304 10295 10288 10281 10275 10269 10263 10256 10249 10242 10234 10225 10219
10701 10700 10695 10692 10692 10688 10685 10683 10679 10677 10672 10669 10666 10662 10659 10654 10651 10656 10657 10656 10661 10664 10663 10659 10654 10656 10656 10650 10645 10638 10630 10626 10622 10617 10613 10608 10604 10600 10595 10589 10583 10577 10571 10565 10560 10554 10548 10541 10533 10526 10519 10512 10506 10498 10490 10482 10474 10465 10456 10447 10437 10426 10415 10404 10393 10381 10369 10356 10344 10333 10323 10312 10301 10292 10283 10274 10266 10260 10255 10249 10243 10236 10230 10223 10215 10209
10697 10698 10692 10687 10686 10681 10678 10675 10672 10669 10664 10661 10659 10654 10650 10643 10638 10642 10645 10645 10648 10654 10658 10653 10647 10647 10647 10642 10637 10628 10621 10616 10612 10608 10604 10600 10596 10590 10584 10579 10572 10567 10560 10555 10550 10543 10537 10530 10523 10516 10509 10502 10495 10487 10478 10470 10462 10453 10444 10434 10424 10414 10403 10392 10381 10370 10358 10346 10333 10322 10311 10301 10290 10279 10270 10262 10253 10245 10240 10235 10230 10224 10217 10211 10205 10199
10690 10693 10688 10682 10680 10676 10672 10669 10666 10662 10656 10655 10653 10646 10642 10638 10631 10630 10633 10634 10632 10638 10649 10648 10643 10642 10638 10634 10629 10618 10612 10606 10601 10599 10595 10591 10587 10580 10574 10569 10562 10556 10550 10545 10539 10533 10526 10519 10512 10505 10498 10492 10484 10474 10466 10457 10449 10440 10430 10421 10410 10400 10390 10379 10370 10358 10347 10336 10323 10311 10300 10290 10279 10267 10258 10250 10241 10233 10226 10220 10217 10212 10205 10199 10193 10189
10680 10685 10682 10677 10674 10671 10666 10664 10660 10653 10648 10648 10645 10638 10633 10630 10625 10620 10622 10624 10618 10621 10635 10638 10636 10636 10631 10629 10623 10610 10602 10598 10592 10590 10587 10583 10578 10572 10566 10559 10553 10547 10541 10535 10529 10522 10515 10506 10499 10492 10485 10479 10470 10461 10452 10442 10433 10425 10416 10408 10397 10387 10376 10366 10357 10346 10336 10325 10314 10302 10290 10279 10268 10257 10246 10238 10230 10223 10215 10208 10203 10198 10194 10188 10182 10178
10667 10674 10676 10670 10667 10664 10660 10657 10652 10646 10643 10639 10635 10630 10625 10621 10618 10612 10609 10613 10609 10606 10618 10626 10627 10626 10622 10622 10618 10602 10592 10589 10585 10581 10579 10575 10569 10563 10557 10549 10543 10537 10530 10525 10518 10510 10502 10493 10485 10478 10471 10464 10455 10445 10436 10427 10418 10410 10402 10394 10385 10375 10365 10354 10344 10334 10323 10313 10303 10292 10281 10269 10257 10246 10235 10226 10219 10212 10205 10198 10192 10186 10182 10176 10172 10168
10655 10662 10668 10664 10659 10657 10654 10649 10643 10640 10636 10630 10626 10622 10617 10613 10610 10604 10598 10599 10598 10593 10599 10610 10617 10616 10612 10611 10605 10591 10583 10580 10574 10569 10568 10566 10560 10553 10547 10540 10533 10527 10520 10513 10506 10497 10489 10480 10473 10465 10457 10448 10438 10429 10421 10412 10403 10395 10387 10380 10371 10362 10352 10342 10332 10323 10312 10301 10291 10280 10269 10258 10247 10235 10225 10216 10208 10201 10194 10188 10182 10175 10170 10165 10162 10158
10645 10649 10659 10659 10654 10651 10647 10640 10635 10632 10626 10621 10617 10615 10612 10606 10600 10597 10591 10587 10585 10582 10583 10590 10599 10607 10606 10600 10589 10577 10575 10571 10560 10556 10556 10554 10549 10542 10534 10529 10522 10515 10508 10501 10493 10484 10476 10467 10459 10451 10442 10433 10423 10414 10406 10397 10389 10382 10374 10367 10358 10349 10339 10329 10318 10310 10301 10290 10279 10269 10258 10247 10236 10225 10215 10206 10197 10190 10183 10177 10171 10165 10159 10155 10152 10149
10635 10638 10648 10651 10648 10645 10641 10634 10629 10624 10617 10611 10609 10607 10604 10597 10590 10588 10586 10582 10574 10572 10575 10571 10576 10596 10599 10584 10573 10568 10566 10558 10546 10544 10546 10541 10535 10529 10521 10516 10510 10503 10495 10487 10479 10470 10462 10453 10444 10437 10428 10419 10410 10400 10392 10384 10376 10369 10361 10354 10346 10336 10326 10317 10306 10296 10288 10279 10269 10259 10249 10237 10226 10215 10205 10197 10188 10180 10173 10167 10161 10154 10149 10145 10142 10139
10625 10628 10637 10641 10639 10637 10634 10628 10623 10617 10609 10604 10603 10601 10594 10586 10581 10576 10576 10578 10568 10563 10568 10556 10557 10586 10588 10563 10556 10557 10551 10541 10533 10533 10534 10529 10522 10515 10509 10504 10496 10490 10482 10474 10466 10457 10448 10440 10431 10424 10416 10406 10397 10388 10379 10372 10364 10356 10349 10341 10333 10324 10314 10305 10295 10285 10277 10268 10259 10249 10239 10228 10216 10206 10196 10188 10181 10172 10164 10159 10152 10144 10139 10135 10131 10129
10614 10618 10625 10629 10628 10627 10625 10622 10614 10607 10601 10598 10598 10595 10586 10579 10574 10565 10565 10568 10562 10560 10557 10540 10547 10577 10571 10547 10546 10545 10533 10524 10521 10524 10522 10514 10508 10502 10497 10492 10484 10477 10470 10461 10453 10444 10435 10427 10420 10412 10404 10394 10385 10376 10367 10360 10353 10345 10337 10329 10321 10311 10302 10292 10283 10275 10266 10258 10249 10239 10229 10218 10207 10196 10187 10179 10172 10163 10156 10150 10143 10135 10129 10125 10121 10119
10605 10608 10613 10616 10618 10617 10615 10613 10605 10596 10592 10593 10594 10587 10579 10573 10566 10559 10557 10554 10554 10557 10542 10525 10543 10563 10551 10537 10539 10531 10517 10511 10511 10514 10510 10500 10495 10490 10484 10480 10472 10464 10457 10449 10440 10432 10423 10415 10409 10401 10392 10383 10373 10365 10357 10349 10342 10334 10325 10317 10309 10299 10290 10281 10272 10264 10256 10248 10239 10229 10218 10208 10197 10188 10178 10170 10162 10155 10148 10142 10134 10126 10120 10116 10112 10110
10598 10600 10601 10602 10605 10606 10607 10603 10594 10587 10585 10587 10587 10580 10572 10567 10558 10553 10551 10544 10545 10547 10531 10522 10538 10544 10532 10528 10527 10512 10499 10498 10501 10501 10495 10487 10482 10478 10473 10467 10459 10451 10445 10436 10427 10419 10411 10404 10397 10389 10380 10371 10362 10354 10346 10338 10331 10322 10313 10304 10296 10288 10279 10270 10261 10253 10245 10237 10229 10219 10208 10197 10187 10178 10169 10161 10153 10145 10139 10133 10126 10118 10112 10107 10104 10101
10590 10592 10593 10590 10587 10590 10596 10592 10583 10578 10577 10579 10580 10573 10566 10560 10551 10546 10541 10534 10532 10528 10524 10526 10524 10522 10523 10516 10506 10495 10484 10484 10490 10485 10478 10473 10468 10465 10460 10453 10446 10439 10432 10424 10415 10407 10399 10392 10385 10377 10368 10360 10351 10344 10336 10327 10319 10310 10301 10292 10284 10277 10270 10260 10250 10242 10234 10226 10218 10209 10198 10188 10177 10167 10159 10152 10144 10136 10130 10124 10117 10110 10103 10099 10095 10093
10580 10585 10588 10582 10574 10575 10580 10576 10570 10568 10568 10569 10570 10564 10557 10551 10546 10537 10526 10524 10519 10507 10517 10528 10507 10503 10520 10506 10481 10478 10474 10473 10476 10468 10461 10459 10453 10451 10447 10439 10433 10427 10419 10412 10403 10395 10388 10381 10373 10365 10357 10349 10341 10333 10325 10316 10308 10299 10291 10282 10273 10265 10258 10250 10241 10232 10222 10214 10206 10197 10188 10178 10168 10158 10149 10141 10133 10126 10121 10115 10109 10101 10094 10091 10088 10084
10568 10574 10580 10572 10565 10566 10565 10560 10557 10555 10556 10561 10561 10554 10547 10543 10537 10525 10514 10516 10509 10492 10506 10521 10496 10491 10511 10493 10464 10464 10465 10463 10461 10453 10448 10446 10441 10439 10433 10426 10422 10416 10408 10401 10392 10384 10377 10369 10362 10354 10346 10339 10330 10321 10313 10304 10296 10288 10280 10272 10263 10254 10247 10240 10231 10222 10212 10203 10194 10186 10178 10169 10158 10148 10140 10132 10123 10116 10111 10106 10099 10092 10086 10082 10079 10076
10556 10563 10569 10560 10553 10557 10555 10548 10543 10541 10543 10551 10554 10547 10538 10531 10523 10514 10508 10509 10499 10485 10495 10503 10489 10489 10496 10473 10455 10457 10455 10451 10447 10440 10437 10435 10431 10428 10421 10416 10412 10404 10397 10390 10380 10373 10366 10357 10350 10342 10335 10327 10318 10310 10301 10292 10284 10276 10268 10260 10251 10243 10237 10229 10220 10211 10201 10192 10183 10175 10168 10159 10149 10139 10130 10122 10114 10107 10102 10097 10090 10083 10077 10073 10070 10068
10544 10551 10556 10547 10540 10546 10546 10536 10531 10530 10529 10538 10549 10542 10526 10515 10508 10504 10502 10499 10489 10482 10485 10482 10479 10489 10483 10456 10448 10452 10445 10439 10435 10430 10427 10425 10421 10416 10410 10406 10400 10392 10385 10377 10368 10362 10353 10345 10339 10331 10324 10316 10307 10299 10291 10281 10273 10265 10257 10249 10241 10233 10225 10218 10210 10199 10189 10181 10173 10165 10158 10149 10140 10130 10121 10113 10104 10097 10093 10088 10081 10074 10069 10064 10062 10060
10534 10539 10543 10532 10526 10535 10537 10525 10521 10520 10516 10528 10546 10534 10509 10501 10502 10495 10490 10488 10480 10474 10474 10468 10467 10477 10470 10448 10442 10443 10435 10428 10424 10419 10416 10414 10410 10404 10398 10394 10387 10379 10372 10364 10356 10349 10340 10333 10327 10320 10313 10304 10296 10289 10281 10272 10262 10253 10245 10238 10230 10223 10214 10205 10198 10189 10179 10171 10163 10156 10149 10140 10131 10121 10111 10103 10095 10087 10083 10078 10072 10065 10060 10056 10053 10052
10525 10526 10529 10521 10512 10521 10525 10516 10511 10509 10507 10525 10539 10519 10495 10494 10494 10485 10480 10479 10471 10462 10460 10459 10457 10458 10453 10443 10438 10433 10424 10419 10413 10408 10405 10401 10396 10391 10386 10381 10374 10366 10359 10350 10343 10335 10327 10322 10315 10309 10302 10293 10284 10277 10270 10262 10252 10242 10235 10228 10219 10212 10203 10194 10186 10178 10169 10161 10153 10146 10139 10131 10123 10113 10103 10094 10085 10078 10073 10068 10063 10057 10051 10047 10045 10044
10518 10515 10515 10509 10500 10503 10510 10505 10498 10496 10503 10520 10524 10504 10489 10487 10481 10474 10473 10472 10463 10452 10448 10448 10447 10442 10436 10432 10429 10421 10414 10410 10403 10397 10393 10388 10383 10378 10373 10367 10360 10353 10345 10336 10329 10322 10316 10310 10304 10297 10290 10281 10273 10266 10258 10251 10243 10233 10225 10218 10209 10201 10192 10183 10175 10166 10159 10150 10142 10136 10129 10122 10114 10105 10095 10086 10077 10069 10064 10059 10053 10048 10042 10039 10037 10036
10509 10505 10501 10497 10488 10488 10493 10489 10482 10486 10499 10510 10506 10492 10481 10476 10469 10463 10464 10466 10457 10443 10436 10436 10436 10432 10423 10418 10415 10409 10404 10399 10391 10386 10381 10374 10369 10364 10358 10352 10346 10338 10331 10323 10317 10311 10305 10299 10293 10286 10279 10271 10263 10255 10247 10240 10232 10223 10214 10206 10197 10188 10180 10172 10164 10156 10148 10140 10132 10125 10119 10112 10104 10095 10086 10077 10068 10060 10055 10050 10044 10039 10034 10031 10029 10028
10498 10493 10487 10483 10477 10474 10476 10473 10468 10476 10492 10497 10490 10479 10469 10463 10457 10450 10453 10462 10452 10433 10425 10425 10425 10422 10411 10403 10401 10396 10391 10385 10378 10373 10367 10361 10356 10350 10343 10338 10332 10325 10318 10312 10307 10301 10294 10289 10282 10274 10267 10260 10252 10244 10236 10228 10220 10211 10201 10192 10185 10177 10168 10161 10154 10146 10138 10130 10122 10115 10108 10101 10095 10086 10077 10069 10059 10052 10047 10041 10035 10031 10026 10023 10022 10021
10487 10482 10476 10471 10465 10460 10460 10460 10457 10462 10479 10486 10475 10459 10451 10449 10444 10435 10441 10457 10446 10421 10414 10417 10416 10411 10400 10391 10388 10382 10376 10371 10365 10359 10353 10348 10344 10337 10330 10326 10320 10313 10308 10301 10295 10290 10284 10278 10271 10263 10256 10249 10241 10233 10225 10217 10209 10200 10190 10181 10174 10167 10159 10151 10143 10136 10128 10120 10113 10105 10097 10090 10084 10076 10068 10060 10051 10044 10039 10033 10027 10023 10018 10015 10014 10013
10476 10471 10466 10457 10452 10450 10446 10447 10446 10447 10464 10478 10465 10443 10434 10434 10428 10419 10426 10444 10436 10409 10402 10408 10405 10397 10388 10380 10375 10368 10360 10357 10352 10344 10339 10335 10331 10324 10319 10316 10309 10302 10297 10290 10284 10280 10274 10267 10260 10251 10244 10237 10230 10222 10214 10207 10199 10190 10181 10172 10164 10157 10149 10141 10133 10125 10118 10111 10103 10095 10086 10078 10073 10066 10059 10051 10043 10036 10031 10025 10019 10014 10010 10007 10005 10005
10462 10459 10455 10443 10439 10442 10436 10434 10435 10434 10447 10464 10454 10434 10426 10424 10418 10408 10411 10428 10424 10399 10393 10398 10391 10382 10376 10368 10361 10354 10347 10343 10337 10330 10325 10323 10318 10313 10309 10305 10298 10291 10285 10278 10273 10268 10262 10256 10248 10240 10233 10225 10218 10210 10203 10195 10188 10180 10171 10163 10155 10147 10140 10131 10123 10115 10108 10101 10093 10085 10076 10068 10062 10056 10049 10042 10034 10028 10022 10016 10011 10006 10002 9999 9997 9996
10447 10444 10441 10432 10428 10431 10426 10424 10423 10422 10433 10444 10432 10420 10418 10414 10407 10399 10399 10410 10408 10392 10387 10387 10377 10370 10364 10355 10348 10342 10333 10328 10324 10317 10313 10311 10306 10302 10298 10293 10287 10280 10273 10266 10261 10256 10250 10244 10236 10229 10222 10214 10206 10198 10190 10183 10177 10169 10161 10153 10145 10138 10130 10122 10114 10107 10099 10092 10084 10075 10066 10058 10052 10045 10039 10032 10025 10019 10014 10008 10002 9998 9994 9991 9989 9988
10434 10430 10426 10420 10419 10420 10416 10412 10409 10412 10424 10424 10409 10404 10406 10400 10394 10389 10387 10390 10388 10380 10377 10372 10362 10358 10351 10341 10336 10330 10321 10317 10312 10305 10302 10298 10293 10290 10286 10281 10275 10268 10261 10255 10249 10244 10237 10231 10224 10216 10209 10202 10195 10187 10179 10172 10165 10158 10151 10143 10135 10128 10120 10112 10105 10098 10090 10082 10073 10064 10055 10048 10042 10035 10029 10022 10016 10010 10004 9998 9994 9991 9986 9983 9981 9980
10420 10415 10409 10410 10412 10411 10405 10397 10395 10406 10416 10406 10391 10390 10390 10382 10381 10381 10375 10372 10369 10364 10362 10356 10349 10345 10337 10329 10324 10317 10310 10306 10300 10294 10290 10285 10281 10278 10274 10268 10262 10255 10249 10243 10237 10231 10224 10217 10211 10204 10197 10190 10183 10176 10169 10162 10155 10148 10140 10133 10125 10117 10110 10103 10095 10088 10081 10072 10063 10054 10045 10037 10031 10025 10019 10013 10007 10001 9995 9989 9986 9983 9978 9975 9974 9972
10402 10396 10396 10403 10403 10397 10390 10383 10385 10399 10405 10391 10377 10375 10372 10367 10368 10367 10361 10357 10354 10348 10345 10341 10336 10331 10325 10318 10312 10304 10298 10293 10288 10283 10278 10271 10269 10267 10261 10255 10249 10242 10236 10231 10224 10219 10212 10206 10200 10193 10185 10179 10172 10165 10158 10151 10144 10137 10130 10122 10115 10107 10100 10093 10086 10078 10071 10062 10053 10043 10034 10027 10021 10015 10010 10003 9998 9993 9986 9980 9978 9976 9972 9968 9966 9966
10385 10381 10385 10390 10386 10378 10375 10375 10379 10386 10386 10376 10365 10360 10357 10352 10350 10347 10343 10341 10337 10334 10330 10327 10323 10319 10313 10306 10299 10291 10285 10280 10275 10271 10264 10259 10258 10255 10248 10242 10236 10230 10225 10219 10213 10207 10200 10194 10189 10182 10175 10168 10161 10155 10148 10141 10134 10126 10119 10111 10104 10097 10090 10084 10076 10068 10060 10052 10043 10033 10024 10017 10011 10006 10001 9995 9990 9986 9979 9973 9970 9968 9965 9962 9960 9959
10372 10371 10368 10367 10365 10361 10362 10368 10374 10372 10363 10358 10355 10350 10342 10335 10331 10330 10328 10323 10319 10318 10317 10313 10310 10307 10300 10293 10286 10278 10272 10267 10262 10256 10251 10249 10248 10242 10235 10230 10224 10218 10213 10207 10201 10195 10189 10183 10178 10171 10165 10158 10151 10144 10138 10131 10123 10116 10108 10101 10095 10088 10081 10074 10066 10058 10050 10041 10033 10024 10015 10007 10002 9997 9992 9987 9984 9979 9971 9965 9963 9961 9958 9955 9953 9953
10357 10355 10349 10346 10346 10346 10350 10359 10362 10354 10345 10344 10345 10338 10326 10319 10317 10317 10314 10309 10305 10304 10302 10300 10297 10293 10287 10280 10274 10268 10262 10256 10249 10243 10240 10240 10236 10230 10224 10218 10212 10207 10202 10195 10189 10184 10177 10172 10166 10160 10154 10148 10140 10134 10127 10120 10113 10105 10098 10091 10085 10078 10072 10065 10057 10049 10041 10032 10023 10015 10006 9999 9993 9988 9983 9979 9976 9973 9966 9958 9956 9955 9952 9949 9947 9946
10340 10337 10331 10330 10329 10331 10342 10351 10346 10336 10333 10334 10330 10322 10314 10307 10304 10302 10299 10296 10293 10291 10289 10288 10284 10279 10274 10269 10262 10256 10250 10243 10235 10230 10229 10229 10224 10218 10213 10207 10201 10196 10190 10184 10178 10172 10166 10161 10154 10148 10142 10136 10129 10123 10116 10109 10103 10095 10088 10082 10075 10067 10061 10055 10049 10041 10031 10022 10013 10005 9997 9990 9984 9979 9974 9970 9968 9966 9960 9953 9950 9948 9945 9943 9941 9940
10327 10321 10314 10316 10318 10319 10333 10342 10333 10323 10323 10321 10314 10310 10305 10296 10289 10287 10286 10284 10281 10277 10276 10274 10271 10267 10262 10256 10250 10244 10237 10230 10222 10219 10218 10216 10211 10206 10201 10196 10190 10184 10178 10173 10167 10161 10155 10149 10143 10137 10130 10124 10118 10112 10105 10098 10092 10085 10078 10072 10064 10057 10050 10044 10039 10032 10022 10012 10003 9995 9988 9982 9976 9971 9966 9962 9960 9958 9953 9947 9944 9942 9939 9937 9936 9934
10314 10305 10299 10306 10308 10308 10321 10332 10323 10311 10309 10307 10302 10298 10292 10282 10275 10274 10273 10272 10268 10264 10262 10261 10259 10255 10251 10244 10237 10232 10225 10218 10212 10209 10207 10204 10198 10193 10189 10184 10178 10172 10166 10160 10155 10149 10144 10138 10132 10125 10119 10113 10107 10101 10094 10088 10081 10074 10068 10061 10055 10048 10040 10033 10028 10022 10013 10002 9993 9985 9979 9974 9969 9964 9958 9954 9952 9951 9946 9940 9936 9936 9934 9931 9930 9929
10299 10294 10296 10298 10292 10295 10314 10324 10308 10294 10295 10298 10293 10285 10276 10268 10264 10261 10259 10258 10255 10251 10249 10249 10247 10244 10239 10232 10225 10218 10212 10206 10201 10199 10196 10190 10185 10181 10177 10171 10165 10159 10154 10148 10142 10137 10132 10126 10120 10114 10108 10102 10096 10089 10083 10077 10071 10064 10058 10052 10046 10040 10032 10025 10018 10012 10003 9993 9983 9975 9969 9964 9960 9955 9950 9945 9943 9943 9941 9934 9929 9928 9928 9926 9925 9923
10290 10291 10292 10286 10277 10286 10307 10311 10293 10280 10284 10287 10281 10272 10263 10257 10252 10248 10246 10244 10241 10238 10237 10236 10233 10229 10224 10218 10212 10206 10200 10195 10191 10188 10183 10178 10173 10169 10164 10158 10152 10146 10141 10136 10130 10125 10119 10114 10108 10102 10097 10091 10085 10078 10072 10066 10060 10054 10048 10042 10036 10030 10024 10017 10010 10002 9994 9984 9975 9967 9960 9955 9951 9946 9942 9938 9934 9933 9933 9929 9925 9922 9921 9921 9920 9918
10286 10286 10282 10276 10272 10279 10290 10291 10279 10269 10270 10273 10269 10262 10255 10247 10240 10236 10233 10230 10228 10227 10224 10222 10219 10215 10210 10205 10200 10194 10189 10186 10182 10176 10170 10165 10161 10157 10151 10146 10140 10134 10128 10123 10118 10113 10107 10102 10096 10091 10085 10079 10073 10067 10061 10056 10049 10043 10037 10031 10026 10020 10015 10010 10002 9994 9985 9975 9967 9959 9952 9946 9942 9938 9934 9930 9927 9924 9923 9921 9919 9916 9915 9915 9914 9912